Time,TemperatureF,DewpointF,PressureIn,WindDirection,WindDirectionDegrees,WindSpeedMPH,WindSpeedGustMPH,Humidity,HourlyPrecipIn,Conditions,Clouds,dailyrainin,SolarRadiationWatts/m^2,SoftwareType,DateUTC
2013-04-06 00:28:00,57.3,50.0,29.98,SE,141,8.0,10.0,77,0.00,,,0.00,0,weatherlink.com 1.10,2013-04-06 05:28:00,
2013-04-06 00:43:00,57.3,50.0,29.98,SE,139,6.0,8.0,77,0.00,,,0.00,0,weatherlink.com 1.10,2013-04-06 05:43:00,
2013-04-06 00:58:00,56.9,50.0,29.98,SE,139,5.0,10.0,78,0.00,,,0.00,0,weatherlink.com 1.10,2013-04-06 05:58:00,
2013-04-06 01:13:00,56.5,50.0,29.98,SE,139,4.0,7.0,79,0.00,,,0.00,0,weatherlink.com 1.10,2013-04-06 06:13:00,
2013-04-06 01:58:00,56.3,50.0,29.96,SE,139,5.0,7.0,80,0.00,,,0.00,0,weatherlink.com 1.10,2013-04-06 06:58:00,
2013-04-06 02:44:00,56.1,50.0,29.95,ESE,121,3.0,9.0,80,0.00,,,0.00,0,weatherlink.com 1.10,2013-04-06 07:44:00,
2013-04-06 02:59:00,55.6,50.0,29.95,ESE,122,3.0,7.0,81,0.00,,,0.00,0,weatherlink.com 1.10,2013-04-06 07:59:00,
2013-04-06 03:14:00,55.2,50.0,29.95,ESE,122,2.0,5.0,82,0.00,,,0.00,0,weatherlink.com 1.10,2013-04-06 08:14:00,
2013-04-06 03:29:00,54.9,50.0,29.94,ESE,122,2.0,4.0,83,0.00,,,0.00,0,weatherlink.com 1.10,2013-04-06 08:29:00,
2013-04-06 03:44:00,54.9,50.0,29.94,SE,125,4.0,9.0,83,0.00,,,0.00,0,weatherlink.com 1.10,2013-04-06 08:44:00,
2013-04-06 04:14:00,54.8,50.0,29.94,SE,135,5.0,7.0,83,0.00,,,0.00,0,weatherlink.com 1.10,2013-04-06 09:14:00,
2013-04-06 04:29:00,54.2,50.0,29.93,SE,136,4.0,7.0,84,0.00,,,0.00,0,weatherlink.com 1.10,2013-04-06 09:29:00,
2013-04-06 04:44:00,54.4,50.0,29.94,SE,138,5.0,7.0,85,0.00,,,0.00,0,weatherlink.com 1.10,2013-04-06 09:44:00,
2013-04-06 05:14:00,54.4,50.0,29.93,SSE,153,4.0,9.0,85,0.00,,,0.00,0,weatherlink.com 1.10,2013-04-06 10:14:00,
2013-04-06 05:29:00,54.1,50.0,29.93,SSE,147,7.0,10.0,86,0.00,,,0.00,0,weatherlink.com 1.10,2013-04-06 10:29:00,
2013-04-06 05:44:00,53.8,50.0,29.93,SE,137,6.0,10.0,87,0.00,,,0.00,0,weatherlink.com 1.10,2013-04-06 10:44:00,
2013-04-06 05:59:00,53.9,50.0,29.93,SE,143,6.0,10.0,87,0.00,,,0.00,0,weatherlink.com 1.10,2013-04-06 10:59:00,
2013-04-06 06:14:00,53.8,50.0,29.93,SSE,147,4.0,10.0,88,0.00,,,0.00,0,weatherlink.com 1.10,2013-04-06 11:14:00,
2013-04-06 06:29:00,53.8,50.0,29.93,SSE,148,9.0,12.0,88,0.00,,,0.00,0,weatherlink.com 1.10,2013-04-06 11:29:00,
2013-04-06 06:44:00,54.0,50.0,29.93,SSE,150,9.0,13.0,87,0.00,,,0.00,0,weatherlink.com 1.10,2013-04-06 11:44:00,
2013-04-06 06:59:00,54.2,51.0,29.94,SSE,155,8.0,12.0,87,0.00,,,0.00,0,weatherlink.com 1.10,2013-04-06 11:59:00,
2013-04-06 07:14:00,54.0,50.0,29.95,SSE,158,6.0,10.0,86,0.00,,,0.00,7,weatherlink.com 1.10,2013-04-06 12:14:00,
2013-04-06 07:44:00,54.1,50.0,29.95,SE,145,6.0,9.0,86,0.00,,,0.00,40,weatherlink.com 1.10,2013-04-06 12:44:00,
2013-04-06 07:59:00,54.3,50.0,29.96,SSE,147,6.0,9.0,85,0.00,,,0.00,65,weatherlink.com 1.10,2013-04-06 12:59:00,
2013-04-06 08:14:00,54.9,50.0,29.95,SSE,149,7.0,11.0,83,0.00,,,0.00,151,weatherlink.com 1.10,2013-04-06 13:14:00,
2013-04-06 08:29:00,56.2,50.0,29.95,SSE,156,15.0,17.0,80,0.00,,,0.00,163,weatherlink.com 1.10,2013-04-06 13:29:00,
2013-04-06 08:44:00,56.9,50.0,29.95,SSE,156,9.0,18.0,78,0.00,,,0.00,276,weatherlink.com 1.10,2013-04-06 13:44:00,
2013-04-06 09:00:00,57.9,51.0,29.95,SSE,156,12.0,17.0,77,0.00,,,0.00,329,weatherlink.com 1.10,2013-04-06 14:00:00,
2013-04-06 09:14:00,58.9,51.0,29.95,SSE,163,7.0,21.0,75,0.00,,,0.00,383,weatherlink.com 1.10,2013-04-06 14:14:00,
2013-04-06 09:30:00,60.1,51.0,29.94,SSE,163,20.0,22.0,73,0.00,,,0.00,429,weatherlink.com 1.10,2013-04-06 14:30:00,
2013-04-06 09:45:00,61.3,51.0,29.95,SSE,158,13.0,26.0,70,0.00,,,0.00,483,weatherlink.com 1.10,2013-04-06 14:45:00,
2013-04-06 10:00:00,62.2,52.0,29.94,SSE,164,21.0,30.0,70,0.00,,,0.00,503,weatherlink.com 1.10,2013-04-06 15:00:00,
2013-04-06 10:15:00,63.2,51.0,29.93,SSE,166,14.0,31.0,65,0.00,,,0.00,573,weatherlink.com 1.10,2013-04-06 15:15:00,
2013-04-06 10:30:00,64.7,52.0,29.93,South,169,11.0,27.0,63,0.00,,,0.00,615,weatherlink.com 1.10,2013-04-06 15:30:00,
2013-04-06 10:45:00,65.2,51.0,29.94,South,170,9.0,23.0,61,0.00,,,0.00,654,weatherlink.com 1.10,2013-04-06 15:45:00,
2013-04-06 11:00:00,65.3,50.0,29.94,SSE,162,9.0,28.0,59,0.00,,,0.00,689,weatherlink.com 1.10,2013-04-06 16:00:00,
2013-04-06 11:15:00,65.9,51.0,29.94,South,172,19.0,26.0,60,0.00,,,0.00,724,weatherlink.com 1.10,2013-04-06 16:15:00,
2013-04-06 11:30:00,66.3,52.0,29.93,SSE,156,21.0,26.0,61,0.00,,,0.00,756,weatherlink.com 1.10,2013-04-06 16:30:00,
2013-04-06 11:45:00,66.8,53.0,29.93,SSE,164,17.0,28.0,62,0.00,,,0.00,784,weatherlink.com 1.10,2013-04-06 16:45:00,
2013-04-06 12:00:00,67.3,55.0,29.93,South,179,15.0,25.0,64,0.00,,,0.00,814,weatherlink.com 1.10,2013-04-06 17:00:00,
2013-04-06 12:15:00,67.8,54.0,29.92,SSE,159,14.0,30.0,62,0.00,,,0.00,831,weatherlink.com 1.10,2013-04-06 17:15:00,
2013-04-06 12:30:00,68.6,54.0,29.91,South,177,10.0,22.0,61,0.00,,,0.00,847,weatherlink.com 1.10,2013-04-06 17:30:00,
2013-04-06 12:45:00,69.2,55.0,29.91,SSW,193,14.0,26.0,60,0.00,,,0.00,863,weatherlink.com 1.10,2013-04-06 17:45:00,
2013-04-06 13:00:00,69.4,56.0,29.89,SSW,199,11.0,29.0,62,0.00,,,0.00,877,weatherlink.com 1.10,2013-04-06 18:00:00,
2013-04-06 13:15:00,69.9,56.0,29.90,SSE,156,22.0,29.0,61,0.00,,,0.00,884,weatherlink.com 1.10,2013-04-06 18:15:00,
2013-04-06 13:30:00,70.0,56.0,29.90,South,185,13.0,28.0,61,0.00,,,0.00,886,weatherlink.com 1.10,2013-04-06 18:30:00,
2013-04-06 13:46:00,70.8,57.0,29.89,SSE,156,16.0,26.0,62,0.00,,,0.00,884,weatherlink.com 1.10,2013-04-06 18:46:00,
2013-04-06 14:01:00,70.8,56.0,29.87,SSE,168,12.0,28.0,59,0.00,,,0.00,877,weatherlink.com 1.10,2013-04-06 19:01:00,
2013-04-06 14:16:00,71.5,57.0,29.86,SSE,166,15.0,29.0,60,0.00,,,0.00,861,weatherlink.com 1.10,2013-04-06 19:16:00,
2013-04-06 14:46:00,72.4,57.0,29.84,SSE,162,24.0,32.0,58,0.00,,,0.00,884,weatherlink.com 1.10,2013-04-06 19:46:00,
2013-04-06 15:16:00,73.3,58.0,29.84,SSE,166,9.0,27.0,60,0.00,,,0.00,930,weatherlink.com 1.10,2013-04-06 20:16:00,
2013-04-06 15:31:00,73.8,58.0,29.83,SSE,147,11.0,26.0,59,0.00,,,0.00,962,weatherlink.com 1.10,2013-04-06 20:31:00,
2013-04-06 15:46:00,72.7,58.0,29.83,South,169,11.0,24.0,61,0.00,,,0.00,666,weatherlink.com 1.10,2013-04-06 20:46:00,
2013-04-06 16:01:00,73.8,59.0,29.82,SSW,199,11.0,30.0,60,0.00,,,0.00,821,weatherlink.com 1.10,2013-04-06 21:01:00,
2013-04-06 16:16:00,74.3,59.0,29.81,SSE,156,13.0,24.0,60,0.00,,,0.00,851,weatherlink.com 1.10,2013-04-06 21:16:00,
2013-04-06 16:31:00,74.4,59.0,29.81,SSE,152,15.0,27.0,58,0.00,,,0.00,297,weatherlink.com 1.10,2013-04-06 21:31:00,
2013-04-06 16:46:00,73.7,59.0,29.80,SSE,153,27.0,27.0,60,0.00,,,0.00,338,weatherlink.com 1.10,2013-04-06 21:46:00,
2013-04-06 17:01:00,73.4,59.0,29.80,SSE,153,22.0,25.0,61,0.00,,,0.00,253,weatherlink.com 1.10,2013-04-06 22:01:00,
2013-04-06 17:16:00,73.5,59.0,29.79,SSE,155,16.0,30.0,61,0.00,,,0.00,232,weatherlink.com 1.10,2013-04-06 22:16:00,
2013-04-06 17:31:00,74.1,60.0,29.79,SE,136,23.0,27.0,61,0.00,,,0.00,503,weatherlink.com 1.10,2013-04-06 22:31:00,
2013-04-06 18:16:00,73.2,60.0,29.79,SSE,155,16.0,22.0,63,0.00,,,0.00,294,weatherlink.com 1.10,2013-04-06 23:16:00,
2013-04-06 18:31:00,73.2,60.0,29.79,SSE,158,13.0,21.0,63,0.00,,,0.00,120,weatherlink.com 1.10,2013-04-06 23:31:00,
2013-04-06 18:46:00,73.1,60.0,29.79,SSE,148,9.0,21.0,64,0.00,,,0.00,225,weatherlink.com 1.10,2013-04-06 23:46:00,
2013-04-06 19:01:00,72.5,60.0,29.79,SSE,147,6.0,21.0,64,0.00,,,0.00,84,weatherlink.com 1.10,2013-04-07 00:01:00,
2013-04-06 19:16:00,71.8,59.0,29.79,ESE,118,11.0,19.0,65,0.00,,,0.00,23,weatherlink.com 1.10,2013-04-07 00:16:00,
2013-04-06 19:46:00,70.6,60.0,29.79,SE,133,6.0,14.0,68,0.00,,,0.00,7,weatherlink.com 1.10,2013-04-07 00:46:00,
2013-04-06 20:01:00,70.1,59.0,29.79,SE,129,8.0,17.0,68,0.00,,,0.00,0,weatherlink.com 1.10,2013-04-07 01:01:00,
2013-04-06 20:16:00,69.5,59.0,29.80,SE,141,8.0,14.0,69,0.00,,,0.00,0,weatherlink.com 1.10,2013-04-07 01:16:00,
2013-04-06 20:31:00,69.0,59.0,29.80,SE,139,7.0,12.0,70,0.00,,,0.00,0,weatherlink.com 1.10,2013-04-07 01:31:00,
2013-04-06 20:46:00,68.5,59.0,29.80,SE,126,7.0,10.0,71,0.00,,,0.00,0,weatherlink.com 1.10,2013-04-07 01:46:00,
2013-04-06 21:01:00,68.2,59.0,29.81,ESE,123,7.0,11.0,72,0.00,,,0.00,0,weatherlink.com 1.10,2013-04-07 02:01:00,
2013-04-06 21:16:00,67.8,59.0,29.81,SE,129,6.0,12.0,73,0.00,,,0.00,0,weatherlink.com 1.10,2013-04-07 02:16:00,
2013-04-06 21:31:00,67.5,59.0,29.82,ESE,118,3.0,10.0,74,0.00,,,0.00,0,weatherlink.com 1.10,2013-04-07 02:31:00,
2013-04-06 21:46:00,66.3,59.0,29.83,ESE,116,4.0,9.0,76,0.00,,,0.00,0,weatherlink.com 1.10,2013-04-07 02:46:00,
2013-04-06 22:16:00,66.3,59.0,29.83,ESE,121,3.0,10.0,76,0.00,,,0.00,0,weatherlink.com 1.10,2013-04-07 03:16:00,
2013-04-06 22:31:00,65.8,58.0,29.83,ESE,114,4.0,10.0,77,0.00,,,0.00,0,weatherlink.com 1.10,2013-04-07 03:31:00,
2013-04-06 22:46:00,65.5,58.0,29.83,SE,125,10.0,11.0,78,0.00,,,0.00,0,weatherlink.com 1.10,2013-04-07 03:46:00,
2013-04-06 23:01:00,65.7,58.0,29.83,ESE,119,5.0,10.0,77,0.00,,,0.00,0,weatherlink.com 1.10,2013-04-07 04:01:00,
2013-04-06 23:31:00,64.5,58.0,29.82,ESE,120,7.0,9.0,79,0.00,,,0.00,0,weatherlink.com 1.10,2013-04-07 04:31:00,
2013-04-06 23:46:00,64.7,58.0,29.82,SSE,147,7.0,14.0,79,0.00,,,0.00,0,weatherlink.com 1.10,2013-04-07 04:46:00,